Location: Bucharest
(44.4268°N, 26.1025°E)
Time: 06:46:03
(UTC+03:00)

Oscar 19 - Pass Details

Date: 04 July 2022
Orbit: 773 x 790 km, 98.8° (Epoch: 14 August)

Event Time Altitude Azimuth Distance (km) Brightness Sun altitude
Rises 03:28:21 0° 32° (NNE) 3,259 15.7 -16.6°
Reaches altitude 10° 03:31:45 10° 56° (NE) 2,325 14.1 -16.2°
Maximum altitude 03:34:35 15° 90° (E) 2,003 13.2 -16.0°
Drops below altitude 10° 03:37:25 10° 124° (ESE) 2,317 13.1 -15.7°
Sets 03:40:46 0° 147° (SSE) 3,239 13.6 -15.4°
